Simultaneous Nadir Overpasses (SNOs) Predictions

Prediction of SNOs between FY3D and NOAA-19 Satellite Orbit:

Table of predicted SNOs for the next 14.0 days since TLE Epoch: 1/28/2023
Index Date (FY3D) Time (FY3D) Lat,Lon (FY3D) SZA (FY3D ) Date (NOAA-19) Time (NOAA-19) Lat,Lon (NOAA-19) SZA (NOAA-19 ) Distance(km) Time Diff (sec)
1 02/01/2023 09:30:58 -76.83,-154.35 85.70 02/01/2023 09:29:44 -76.83,-154.69 85.66 8.71 74
2 02/01/2023 10:21:45 76.88, 12.76 94.36 02/01/2023 10:20:43 76.89, 12.80 94.38 1.38 62
3 02/01/2023 11:12:31 -76.89,-179.97 85.65 02/01/2023 11:11:42 -76.89,-179.92 85.63 1.27 49
4 02/01/2023 12:03:17 76.90, -12.68 94.35 02/01/2023 12:02:42 76.91, -12.61 94.37 2.36 35
5 02/01/2023 12:54:02 -76.90, 154.59 85.65 02/01/2023 12:53:40 -76.91, 154.67 85.64 2.15 22
6 02/01/2023 13:44:48 76.91, -38.13 94.35 02/01/2023 13:44:40 76.93, -38.02 94.37 3.35 8
7 02/01/2023 14:35:34 -76.92, 129.15 85.65 02/01/2023 14:35:39 -76.93, 129.26 85.65 3.04 5
8 02/01/2023 15:26:20 76.93, -63.57 94.35 02/01/2023 15:26:40 76.90, -63.61 94.33 2.50 20
9 02/01/2023 16:17:06 -76.93, 103.70 85.65 02/01/2023 16:17:39 -76.91, 103.66 85.68 3.13 33
10 02/01/2023 17:07:52 76.94, -89.01 94.35 02/01/2023 17:08:39 76.92, -89.02 94.32 1.81 47
11 02/01/2023 17:58:38 -76.95, 78.26 85.66 02/01/2023 17:59:38 -76.93, 78.25 85.69 2.51 60
12 02/01/2023 18:49:24 76.96,-114.46 94.35 02/01/2023 18:50:38 76.94,-114.43 94.32 1.52 74



Historial Predications of SNOs between FY3D and NOAA-19
